Vorticity
nan nan nan nan nan nan nan nan nan nan nan nan nan nan nan nan nan nan nan nan nan nan nan nan nan nan nan nan nan nan nan nan nan nan nan nan nan nan nan nan nan nan nan nan nan
nan 6 6 7 7 6 7 7 7 6 7 8 8 8 7 12 17 14 17 17 15 1 -0 2 4 4 5 11 6 6 12 4 5 16 4 6 1 3 8 5 11 11 14 12 nan
nan 7 7 7 6 7 7 6 6 7 7 7 8 8 9 13 16 23 10 10 6 -0 -1 -2 5 -0 10 10 12 10 9 3 5 9 13 8 9 9 6 7 9 10 7 5 nan
nan 7 7 7 7 7 7 7 7 7 7 7 8 10 14 14 4 16 19 12 8 -1 1 6 6 2 6 7 6 11 8 9 9 9 19 4 8 1 3 19 21 11 7 6 nan
nan 7 7 7 7 7 7 8 8 8 8 8 9 13 16 9 11 9 13 13 6 2 5 5 4 10 1 5 5 7 1 12 18 13 12 6 10 2 6 10 15 12 8 5 nan
nan 7 7 7 7 8 7 8 8 8 9 11 10 15 11 1 15 11 9 8 3 5 5 3 -0 6 7 6 11 0 18 17 -4 7 8 6 10 8 4 9 9 10 7 6 nan
nan 6 6 7 7 8 8 8 8 10 12 16 17 9 9 11 4 10 5 3 3 7 5 6 4 0 5 9 6 7 17 7 5 4 7 16 -6 12 10 8 8 8 6 7 nan
nan 7 7 7 7 8 8 8 10 14 16 17 16 7 6 14 5 9 8 4 5 5 6 6 8 6 2 9 7 10 6 9 12 -2 -1 6 4 8 11 8 7 7 8 8 nan
nan 8 8 8 7 8 9 9 19 18 15 11 8 8 5 9 12 5 9 9 8 4 5 5 10 9 12 10 9 9 4 3 6 16 7 -2 11 8 8 7 9 8 9 7 nan
nan 7 7 7 8 8 14 21 21 20 9 2 9 10 20 8 13 13 8 8 8 7 5 6 8 12 8 6 6 13 2 13 -4 12 9 5 15 17 7 6 7 8 8 8 nan
nan 7 7 8 8 9 22 27 16 12 6 0 6 5 5 14 11 14 13 9 6 9 9 3 3 7 8 1 -3 4 7 13 -5 7 14 -1 15 24 9 5 8 8 9 8 nan
nan 7 8 8 9 18 19 11 7 8 17 14 2 4 -0 6 9 16 12 7 9 7 5 2 6 5 4 6 8 2 10 3 16 7 10 11 5 8 9 8 6 7 8 9 nan
nan 7 8 9 18 24 12 11 5 13 13 20 20 11 10 3 3 11 12 9 5 6 4 4 4 7 6 7 7 6 8 -2 7 8 2 9 11 13 12 6 7 10 8 10 nan
nan 8 8 19 19 16 14 2 7 10 17 26 15 16 14 11 18 12 7 10 9 9 8 5 7 5 7 7 7 5 5 1 7 5 10 10 8 20 6 8 10 7 8 9 nan
nan 11 16 16 14 7 5 6 12 9 9 16 10 13 17 1 14 26 8 10 13 9 9 10 10 4 6 5 7 3 8 10 1 2 12 3 9 13 8 6 10 12 9 8 nan
nan 11 23 21 7 5 5 12 13 8 17 4 5 9 7 7 -1 11 17 7 12 14 8 10 9 10 5 6 8 2 5 8 12 11 10 4 9 6 18 14 14 14 10 11 nan
nan 15 19 7 9 12 14 13 7 5 10 14 8 11 7 8 10 5 9 11 9 10 12 14 11 8 11 5 8 8 5 6 10 9 9 12 4 1 8 13 19 17 9 10 nan
nan 26 17 8 11 11 12 8 4 10 7 7 6 9 14 14 13 9 5 11 10 3 9 15 13 15 6 12 5 8 4 3 3 1 10 9 8 7 4 5 2 10 15 14 nan
nan 24 7 9 10 12 12 9 3 4 13 5 10 15 11 8 10 17 14 12 13 13 6 8 10 11 7 15 7 7 7 1 5 1 8 17 12 4 3 4 6 9 8 5 nan
nan 14 17 6 6 10 9 5 9 12 8 9 11 15 13 15 10 8 11 16 15 14 9 4 21 21 14 3 8 11 9 7 7 9 8 7 8 17 11 13 10 7 2 5 nan
nan 9 12 9 7 12 8 12 14 5 8 11 12 9 11 14 17 7 5 6 16 10 10 8 18 21 23 12 5 6 4 6 11 8 8 9 10 8 5 10 12 15 4 6 nan
nan 12 9 9 10 7 10 8 11 11 10 8 7 8 21 13 6 13 14 4 8 12 21 10 7 22 16 8 12 9 15 1 6 9 5 8 10 15 17 8 5 2 7 7 nan
nan 13 12 8 11 10 9 4 3 17 9 12 9 13 10 8 7 15 12 8 17 13 14 26 7 14 13 10 8 12 11 11 3 11 9 8 6 5 9 8 14 10 7 -4 nan
nan 16 9 7 10 7 5 12 12 9 8 11 10 12 11 10 12 12 6 7 7 11 9 17 14 11 6 18 9 11 10 11 9 4 7 8 8 8 4 7 2 0 7 5 nan
nan 7 7 13 7 10 17 16 15 10 12 12 12 9 11 10 11 13 6 4 10 8 9 9 14 21 0 2 27 24 8 7 9 8 9 8 5 6 10 6 2 12 6 7 nan
nan 11 8 9 8 16 16 8 11 15 10 15 18 9 9 17 12 12 7 8 15 0 8 12 13 13 18 9 9 13 21 15 8 8 8 6 14 16 11 9 7 4 9 12 nan
nan nan nan nan nan nan nan nan nan nan nan nan nan nan nan nan nan nan nan nan nan nan nan nan nan nan nan nan nan nan nan nan nan nan nan nan nan nan nan nan nan nan nan nan nan
CAPE
4 2 1 0 0 0 0 0 0 0 0 0 0 0 0 0 0 0 0 4 86 862 738 656 885 727 494 453 289 422 24 28 209 345 596 506 565 669 373 315 397 336 85 0 2
3 4 3 2 0 0 0 0 0 0 0 0 0 0 0 0 0 0 0 1088 492 889 589 354 586 620 560 185 276 260 2 0 7 148 389 324 449 381 259 277 398 158 33 0 0
1 1 5 3 2 1 0 0 0 0 0 0 0 0 0 0 0 0 172 1555 1021 1342 233 239 142 248 17 104 149 50 12 2 0 85 249 392 319 388 396 67 418 188 21 0 0
2 3 2 2 1 1 0 0 0 0 0 0 0 0 0 0 0 9 547 1641 1372 879 198 152 118 175 1 11 13 8 0 8 9 51 252 440 400 405 360 322 397 236 56 0 0
2 2 4 2 1 0 0 0 0 0 0 0 0 0 0 0 0 357 1260 1610 524 806 126 109 77 137 9 15 4 23 5 5 50 103 334 242 341 320 517 473 592 373 108 4 0
2 4 2 1 1 1 0 0 0 0 0 0 0 0 0 0 0 154 163 485 165 257 116 75 27 34 33 20 0 7 41 13 7 16 52 62 71 82 82 274 602 484 212 51 0
2 3 1 1 0 0 0 0 0 0 0 0 0 0 0 0 0 0 55 82 91 41 40 38 7 22 40 11 0 0 147 236 41 80 81 39 106 193 144 353 664 600 431 217 9
3 2 2 1 1 0 1 0 0 0 0 0 0 0 0 0 0 0 0 0 0 0 0 0 0 0 0 0 0 0 183 188 265 94 176 33 7 519 427 520 755 787 678 458 77
4 4 4 3 3 1 0 0 0 0 0 0 0 0 0 0 0 0 0 0 0 0 16 0 0 0 0 0 2 1 252 69 3 328 141 48 1 345 714 506 722 927 802 630 210
3 4 4 3 2 0 0 0 0 0 0 0 0 0 0 0 0 0 0 0 0 0 0 0 0 0 0 17 36 57 164 60 0 156 374 35 79 563 729 905 544 957 877 770 385
3 4 5 4 2 0 0 0 0 0 0 0 0 0 0 0 0 0 0 0 0 0 0 0 0 0 3 9 36 19 3 204 78 104 521 222 168 382 576 830 880 788 993 900 619
3 4 5 4 0 0 0 0 0 0 0 0 0 0 0 0 0 0 0 0 0 0 0 0 0 0 4 34 47 8 3 74 47 215 100 177 104 545 694 592 862 904 864 933 835
5 5 5 2 0 0 0 0 0 0 0 0 0 0 0 0 0 0 0 0 0 0 0 0 0 0 13 30 54 19 12 54 58 14 9 55 40 48 459 512 527 877 876 930 841
6 7 1 1 0 0 0 0 0 0 0 0 0 0 0 0 0 0 0 0 0 0 0 0 0 15 8 27 48 27 8 27 30 2 35 3 105 16 128 218 467 734 902 952 960
4 7 6 2 0 0 0 0 0 0 0 0 0 0 0 0 0 0 0 0 0 0 0 0 0 14 15 7 19 17 49 45 26 31 49 38 16 111 122 263 319 573 747 922 1011
1 4 0 0 0 0 0 0 0 0 0 0 0 0 0 0 0 0 0 0 0 0 0 0 0 3 9 21 11 22 45 53 62 63 104 76 110 146 99 69 202 324 690 879 1064
0 0 0 0 0 0 0 0 0 0 0 0 0 0 0 0 0 0 0 0 0 0 0 0 0 0 5 48 15 36 90 109 87 80 78 92 157 158 91 45 123 375 493 567 706
0 0 0 0 0 0 0 0 0 0 0 0 0 0 0 0 0 0 0 0 0 0 0 0 0 0 0 10 27 43 89 106 94 113 110 62 124 151 72 18 0 1 150 230 392
0 0 0 0 0 0 0 0 0 2 0 0 0 0 0 0 0 0 0 0 0 0 0 0 0 0 0 2 19 62 105 42 83 127 187 151 104 116 10 5 3 0 0 12 16
0 0 0 0 0 0 0 0 0 0 0 0 0 1 1 1 0 0 0 0 0 0 0 0 0 0 0 0 0 11 66 82 75 132 150 159 91 156 94 7 3 0 44 8 0
0 0 0 0 0 0 0 7 0 0 0 0 0 3 0 37 11 3 4 0 0 0 0 0 0 0 0 0 0 0 4 78 87 92 121 186 175 105 60 76 30 22 8 0 94
0 37 0 0 0 6 6 2 0 0 0 0 0 0 0 3 0 56 66 15 0 0 0 0 0 0 0 0 0 0 3 16 53 23 74 112 151 76 65 33 0 0 6 0 0
52 9 0 0 9 77 35 0 0 0 0 0 0 0 0 0 34 85 74 0 0 0 10 0 0 0 41 3 0 0 0 0 8 14 72 95 59 23 11 0 0 0 0 1 0
29 151 21 1 0 0 26 31 46 0 0 0 0 0 0 0 9 89 26 0 0 0 0 0 0 0 17 10 0 0 0 0 0 6 1 21 63 38 35 14 2 0 0 0 15
1 17 0 135 89 5 51 49 63 60 2 1 3 0 0 4 13 15 103 0 0 0 0 0 2 10 0 39 9 0 0 0 0 0 2 1 26 30 9 4 43 20 22 201 207
4 15 0 11 7 8 25 238 178 155 99 31 11 39 12 28 68 100 6 0 1 0 0 0 118 67 28 5 0 0 0 0 0 0 0 0 2 9 7 6 8 59 335 553 698
0 0 2 3 3 14 29 3 55 112 160 17 20 30 49 90 17 2 4 0 1 0 0 0 75 58 20 15 0 0 0 0 0 0 0 0 108 367 328 233 292 321 991 1269 1295